EHI
0 0 0 0 0 0 0 0 0 0 0 0 0 0 0 0 0 0 0 0 0 0 0 0 0 0 0 0 0 0 0 0 0 0 0 0 0 0 0 0 0 0 0 0
0 0 0 0 0 0 0 0 0 0 0 0 0 0 0 0 0 0 0 0 0 0 0 0 0 0 0 0 0 0 0 0 0 0 0 0 0 0 0 0 0 0 0 0
0 0 0 0 0 0 0 0 0 0 0 0 0 0 0 0 0 0 0 0 0 0 0 0 0 0 0 0 0 0 0 0 0 0 0 0 0 0 0 0 0 0 0 0
0 0 0 0 0 0 0 0 0 0 0 0 0 0 0 0 0 0 0 0 0 0 0 0 0 0 0 0 0 0 0 0 0 0 0 0 0 0 0 0 0 0 0 0
0 0 0 0 0 0 0 0 0 0 0 0 0 0 0 0 0 0 0 0 0 0 0 0 0 0 0 0 0 0 0 0 0 0 0 0 0 0 0 0 0 0 0 0
0 0 0 0 0 0 0 0 0 0 0 0 0 0 0 0 0 0 0 0 0 0 0 0 0 0 0 0 0 0 0 0 0 0 0 0 0 0 0 0 0 0 0 0
0 0 0 0 0 0 0 0 0 0 0 0 0 0 0 0 0 0 0 0 0 0 0 0 0 0 0 0 0 0 0 0 0 0 0 0 0 0 0 0 0 0 0 0
0 0 0 0 0 0 0 0 0 0 0 0 0 0 0 0 0 0 0 0 0 0 0 0 0 0 0 0 0 0 0 0 0 0 0 0 0 0 0 0 0 0 0 0
0 0 0 0 0 0 0 0 0 0 0 0 0 0 0 0 0 0 0 0 0 0 0 0 0 0 0 0 0 0 0 0 0 0 0 0 0 0 0 0 0 0 0 0
0 0 0 0 0 0 0 0 0 0 0 0 0 0 0 0 0 0 0 0 0 0 0 0 0 0 0 0 0 0 0 0 0 0 0 0 0 0 0 0 0 0 0 0
0 0 0 0 0 0 0 0 0 0 0 0 0 0 0 0 0 0 0 0 0 0 0 0 0 0 0 0 0 0 0 0 0 0 0 0 0 0 0 0 0 0 0 0
0 0 0 0 0 0 0 0 0 0 0 0 0 0 0 0 0 0 0 0 0 0 0 0 0 0 0 0 0 0 0 0 0 0 0 0 0 0 0 0 0 0 0 0
0 0 0 0 0 0 0 0 0 0 0 0 0 0 0 0 0 0 0 0 0 0 0 0 0 0 0 0 0 0 0 0 0 0 0 0 0 0 0 0 0 0 0 0
0 0 0 0 0 0 0 0 0 0 0 0 0 0 0 0 0 0 0 0 0 0 0 0 0 0 0 0 0 0 0 0 0 0 0 0 0 0 0 0 0 0 0 0
0 0 0 0 0 0 0 0 0 0 0 0 0 0 0 0 0 0 0 0 0 0 0 0 0 0 0 0 0 0 0 0 0 0 0 0 0 0 0 0 0 0 0 0
0 0 0 0 0 0 0 0 0 0 0 0 0 0 0 0 0 0 0 0 0 0 0 0 0 0 0 0 0 0 0 0 0 0 0 0 0 0 0 0 0 0 0 0
0 0 0 0 0 0 0 0 0 0 0 0 0 0 0 0 0 0 0 0 0 0 0 0 0 0 0 0 0 0 0 0 0 0 0 0 0 0 0 0 0 0 0 0
0 0 0 0 0 0 0 0 0 0 0 0 0 0 0 0 0 0 0 0 0 0 0 0 0 0 0 0 0 0 0 0 0 0 0 0 0 0 0 0 0 0 0 0
0 0 0 0 0 0 0 0 0 0 0 0 0 0 0 0 0 0 0 0 0 0 0 0 0 0 0 0 0 0 0 0 0 0 0 0 0 0 0 0 0 0 0 0
0 0 0 0 0 0 0 0 0 0 0 0 0 0 0 0 0 0 0 0 0 0 0 0 0 0 0 0 0 0 0 0 0 0 0 0 0 0 0 0 0 0 0 0
0 0 0 0 0 0 0 0 0 0 0 0 0 0 0 0 0 0 0 0 0 0 0 0 0 0 0 0 0 0 0 0 0 0 0 0 0 0 0 0 0 0 0 0
0 0 0 0 0 0 0 0 0 0 0 0 0 0 0 0 0 0 0 0 0 0 0 0 0 0 0 0 0 0 0 0 0 0 0 0 0 0 0 0 0 0 0 0
0 0 0 0 0 0 0 0 0 0 0 0 0 0 0 0 0 0 0 0 0 0 0 0 0 0 0 0 0 0 0 0 0 0 0 0 0 0 0 0 0 0 0 0
0 0 0 0 0 0 0 0 0 0 0 0 0 0 0 0 0 0 0 0 0 0 0 0 0 0 0 0 0 0 0 0 0 0 0 0 0 0 0 0 0 0 0 0
0 0 0 0 0 0 0 0 0 0 0 0 0 0 0 0 0 0 0 0 0 0 0 0 0 0 0 0 0 0 0 0 0 0 0 0 0 0 0 0 0 0 0 0
0 0 0 0 0 0 0 0 0 0 0 0 0 0 0 0 0 0 0 0 0 0 0 0 0 0 0 0 0 0 0 0 0 0 0 0 0 0 0 0 0 0 0 0
0 0 0 0 0 0 0 0 0 0 0 0 0 0 0 0 0 0 0 0 0 0 0 0 0 0 0 0 0 0 0 0 0 0 0 0 0 0 0 0 0 0 0 0
Wind_Speed
12 12 11 14 15 13 13 14 16 18 19 18 9 5 6 7 8 7 7 6 6 7 7 8 8 8 8 8 7 7 7 8 9 9 9 9 9 9 9 9 10 10 11 11
11 11 12 17 18 16 16 15 16 17 16 6 3 5 7 8 9 9 8 8 8 9 9 9 9 9 8 8 8 7 8 9 10 10 10 10 9 9 9 9 9 9 10 11
6 6 10 12 12 11 8 7 7 9 6 4 5 6 7 8 8 8 8 9 10 10 9 9 9 9 9 8 8 8 9 10 11 11 10 9 9 9 9 9 9 10 10 10
5 5 9 11 5 4 5 5 6 6 5 6 6 6 6 7 7 9 10 10 9 9 9 9 9 9 9 8 9 9 10 11 11 10 10 9 9 10 10 9 9 9 9 10
3 5 11 9 4 4 3 4 4 5 6 8 8 8 6 6 9 9 9 10 9 9 9 9 10 9 9 9 10 10 12 11 10 9 10 10 10 11 10 9 9 9 8 9
4 5 8 6 2 3 3 3 5 7 8 9 9 9 7 8 10 10 10 9 9 9 10 10 10 9 10 12 12 12 12 11 10 10 11 12 12 11 10 9 9 8 8 8
6 6 10 3 2 2 2 4 5 7 7 8 6 7 9 11 10 9 9 10 10 10 9 9 10 10 12 13 13 12 12 11 11 10 11 12 11 10 10 8 8 8 8 7
6 6 9 1 2 1 4 7 7 8 8 8 9 9 10 10 10 10 10 10 10 10 10 10 10 11 14 14 14 13 12 12 11 11 10 10 11 10 9 8 8 8 7 7
6 7 3 3 4 5 6 7 7 8 9 9 10 10 11 10 10 10 10 10 10 11 12 11 10 11 15 16 14 13 12 12 11 11 10 10 10 11 9 8 7 7 6 6
7 6 7 8 8 8 8 8 9 9 9 9 9 10 11 10 10 10 10 10 10 11 14 15 13 12 13 15 14 13 13 12 11 11 11 10 8 7 8 7 7 7 6 6
10 10 9 6 8 10 10 9 9 9 8 8 9 11 10 10 10 10 10 10 10 11 14 16 15 14 13 13 13 13 13 12 11 10 11 10 9 8 9 8 9 9 7 6
8 6 7 8 8 9 9 9 8 9 9 8 8 10 10 10 9 10 12 12 12 12 14 16 15 15 13 12 12 13 12 11 9 9 9 9 10 9 11 13 17 17 16 13
5 7 7 8 7 7 7 8 7 7 8 9 9 9 10 10 10 11 12 13 14 15 15 16 15 15 13 12 11 12 13 12 10 9 10 9 9 9 10 10 13 15 16 17
5 6 6 6 7 7 7 7 7 8 8 9 9 10 11 12 12 14 14 14 15 16 15 14 15 15 14 13 12 12 12 14 13 10 10 10 9 9 9 9 9 7 9 14
4 4 5 7 7 6 6 7 8 9 9 10 9 10 12 13 15 16 15 15 14 14 14 15 16 17 14 13 12 13 12 10 10 10 9 9 9 9 8 8 8 7 5 6
5 5 5 6 7 7 7 8 9 11 11 12 12 13 13 14 16 16 15 13 13 15 15 15 16 16 14 12 12 12 11 17 16 11 10 9 8 8 8 8 7 6 6 5
4 5 6 7 8 9 9 9 10 11 12 14 15 15 15 15 16 16 14 12 12 14 14 15 16 14 12 12 12 11 10 12 17 12 9 9 8 8 8 7 7 6 5 5
4 5 6 7 9 10 11 11 11 12 13 14 15 14 14 15 16 17 16 15 14 15 14 13 13 13 13 13 11 10 9 9 9 10 9 8 8 7 7 7 7 7 5 5
5 6 8 9 10 11 11 13 13 13 13 13 13 13 14 15 15 15 15 16 17 18 15 11 19 16 13 14 15 9 9 10 10 9 8 11 10 7 6 6 6 5 4 3
7 8 10 11 11 11 12 13 13 13 12 11 12 14 16 16 14 15 15 15 12 12 13 15 15 12 12 12 16 9 9 10 10 10 9 8 7 7 6 6 5 4 3 3
9 10 11 12 12 11 11 11 12 13 13 12 13 15 16 16 14 13 14 15 12 11 13 19 13 11 11 13 16 9 9 9 9 9 8 8 7 7 6 5 4 3 3 2
9 10 11 11 12 12 10 9 11 14 14 14 13 13 14 15 14 13 12 11 13 18 14 10 10 16 20 20 10 9 9 9 8 7 7 7 6 6 6 5 4 3 2 2
9 10 11 11 12 13 13 12 12 12 13 14 14 14 14 13 11 12 14 10 10 18 15 10 18 26 27 14 8 8 9 9 8 8 7 6 6 5 5 4 3 2 1 1
11 11 11 11 11 12 14 14 11 10 11 12 12 12 12 11 10 8 9 17 21 23 13 16 25 26 22 9 8 8 8 8 7 7 6 6 5 4 3 3 2 1 1 1
10 10 10 10 10 10 11 11 11 10 10 9 10 10 8 7 10 11 11 12 18 20 12 16 23 23 13 8 8 8 8 7 7 7 5 5 4 3 3 2 2 1 1 0
10 9 9 9 9 9 8 8 8 8 8 9 9 8 7 7 9 10 10 11 13 18 14 10 11 13 9 8 9 9 8 8 7 6 5 4 3 3 2 2 1 1 0 0
10 9 7 7 7 7 6 7 8 8 8 9 11 10 9 9 9 10 11 10 10 10 10 10 9 8 8 8 8 8 7 6 5 5 4 3 2 2 2 1 1 0 0 0
Wind_Direction
272 285 291 285 280 271 258 257 264 273 279 290 314 353 8 1 350 338 328 334 340 334 325 320 319 318 317 313 309 309 305 297 288 283 280 275 272 268 264 259 255 250 246 242
275 277 280 279 272 268 266 262 263 272 279 300 16 17 0 349 334 324 329 339 336 329 322 320 318 315 314 309 306 307 302 294 291 287 283 277 273 271 268 265 260 254 248 245
278 298 307 275 260 253 242 241 259 275 294 5 6 4 347 326 319 329 340 335 327 322 319 316 314 312 309 304 306 305 297 292 290 287 285 281 278 278 274 270 263 258 253 247
285 310 250 247 276 275 271 282 302 309 347 14 1 342 318 314 342 344 336 328 322 317 314 310 308 307 304 306 306 302 297 293 291 292 293 293 291 286 282 275 268 263 258 251
250 266 275 272 297 344 327 305 354 357 357 351 341 328 317 353 357 334 324 320 316 313 311 310 308 308 311 310 306 301 297 295 297 300 300 298 293 288 285 281 275 267 263 255
227 240 257 276 61 17 353 288 24 10 351 342 347 327 314 343 333 323 319 315 313 311 309 309 310 315 315 309 304 299 298 299 301 301 299 296 292 290 286 280 277 274 269 260
236 246 263 298 103 19 293 299 356 353 342 339 327 297 309 324 321 316 312 312 312 311 309 307 312 316 308 304 300 300 301 301 299 296 294 293 293 290 288 283 280 276 273 266
205 223 256 84 46 345 302 335 347 348 345 332 318 313 316 317 316 315 314 312 312 311 307 307 311 311 305 302 301 301 300 299 298 296 296 298 295 293 289 286 283 280 277 275
210 225 282 28 355 340 354 349 350 344 335 327 319 316 317 315 313 312 310 310 312 310 308 307 307 305 302 302 303 303 302 300 299 298 297 296 295 294 293 287 281 279 276 276
279 286 320 335 345 356 359 349 343 338 330 327 318 315 313 311 310 310 310 311 311 310 308 307 306 300 297 301 304 303 302 301 300 300 299 296 291 287 286 284 280 278 275 274
285 298 311 333 355 354 350 345 338 331 325 321 315 311 310 310 311 311 310 305 304 303 303 304 305 304 303 303 305 304 303 301 301 298 297 297 291 284 282 271 272 279 272 262
285 332 329 328 348 353 343 335 328 323 320 318 314 309 310 308 306 306 305 304 304 302 301 303 305 304 304 306 306 306 305 303 300 299 297 294 293 291 281 277 286 284 278 273
333 345 331 327 341 344 329 324 323 322 317 312 310 308 308 305 302 301 302 303 303 303 301 302 304 305 308 310 307 303 301 301 301 297 296 295 293 294 297 293 285 285 283 281
345 343 325 329 322 321 321 319 315 310 305 303 305 307 306 303 302 302 302 302 300 299 300 303 306 307 309 308 305 300 300 300 300 296 294 293 291 290 290 292 295 287 283 281
342 333 306 307 311 314 313 311 308 303 301 301 301 301 301 301 300 299 299 299 299 302 305 307 306 306 307 305 303 301 301 299 297 294 292 291 290 289 287 286 285 286 283 279
319 309 301 304 307 309 308 307 303 301 302 302 302 300 297 295 294 295 298 302 307 307 306 304 302 302 304 304 303 302 299 300 303 300 298 296 295 293 291 289 287 284 280 275
294 297 301 304 304 303 302 300 297 298 301 300 299 298 298 298 300 302 304 304 299 298 300 299 298 300 301 302 301 301 300 302 305 304 300 298 295 291 289 288 286 284 278 273
261 272 283 288 292 297 298 297 295 295 294 293 295 297 300 304 305 304 305 307 306 303 300 295 294 300 302 302 301 300 301 303 302 300 299 296 294 291 289 287 286 285 286 283
283 287 289 289 290 291 291 293 293 291 290 294 298 301 302 300 299 301 305 307 306 305 304 299 305 308 304 303 305 301 302 302 302 300 299 300 301 295 292 289 287 285 281 275
281 283 286 287 286 283 284 286 289 293 298 302 302 301 300 300 301 302 302 299 294 291 296 303 307 304 304 303 307 303 302 302 302 302 301 301 301 299 296 292 288 283 277 270
277 280 282 283 285 283 285 291 299 301 302 300 296 296 297 299 300 301 302 301 299 296 302 309 310 306 306 308 311 305 303 303 302 301 302 304 303 301 298 295 290 284 279 271
277 281 285 290 293 294 295 297 296 296 297 296 293 294 297 300 301 299 290 291 299 305 310 305 305 306 311 314 308 305 304 303 303 303 303 304 304 302 301 300 296 291 283 267
288 289 292 294 294 294 296 293 289 289 290 291 294 296 295 296 299 301 303 302 303 309 312 304 308 313 316 317 308 307 304 303 304 305 306 305 302 300 300 302 298 291 281 268
286 285 284 285 287 290 291 290 286 284 283 286 286 286 289 296 297 292 293 306 312 312 310 308 314 317 321 317 308 305 303 303 304 305 306 304 301 303 304 304 300 293 282 272
280 281 281 283 284 283 283 288 292 290 288 288 288 287 286 289 297 303 304 305 309 314 311 311 314 318 318 309 307 305 305 304 306 309 306 305 307 306 304 303 300 300 301 289
279 278 277 274 275 279 283 286 287 289 294 297 298 296 297 298 298 301 303 304 304 310 312 308 309 313 311 308 307 306 307 309 311 311 306 307 307 306 308 314 318 322 321 301
279 279 280 281 278 275 278 282 288 293 295 297 300 302 303 303 302 303 304 306 308 308 308 308 310 308 307 307 307 307 306 306 307 307 308 307 307 308 315 324 334 353 29 67